カタログに戻る

STARLINK-3856

運用中通信VLEO
NORAD 52459·PAYLOAD·🇺🇸 United States

打ち上げ May 6, 2022 から Cape Canaveral Space Force Station

Loading…

次のパス (今後24時間)

TLE

最新Source: CelesTrak SupGP

元期: Sep 15, 2026, 01:35 UTC

1 52459C 22049J   26258.06645833  .00004004  00000+0  12148-3 0  2584
2 52459  53.1585 279.3103 0001191  92.2842 283.1946 15.33552349    12

AllMySatでSTARLINK-3856をリアルタイム追跡

Download on the App Store